Marietta, GA

1:03 AM EDT on May 01, 2017 (GMT -0400)
Dobbins Air Force Base

Weather History for KMGE - April, 2013

Change the Weather History Date:

Tuesday, April 16, 2013

  Actual Average Record
Temperature  
Mean Temperature 69 °F -  
Max Temperature 80 °F 69 °F 84 °F (2006)
Min Temperature 59 °F 49 °F 32 °F (2014)
Cooling Degree Days 4    
Growing Degree Days 19 (Base 50)    
Moisture  
Dew Point 61 °F    
Average Humidity 82    
Maximum Humidity 100    
Minimum Humidity 55    
Precipitation  
Precipitation 0.00 in - - ()
Sea Level Pressure  
Sea Level Pressure 30.20 in    
Wind  
Wind Speed 6 mph (ESE)    
Max Wind Speed 12 mph    
Max Gust Speed -    
Visibility 10 miles    
Events      
Averages and records for this station are not official NWS values.
T = Trace of Precipitation, MM = Missing Value Source: NWS Daily Summary

Daily Weather History Graph

Daily Weather History Graph

Search for Another Location

Airport or City:

Trip Planner

Search our weather history database for the weather conditions in past years. The results will help you decide how hot, cold, wet, or windy it might be!

Date:

Astronomy

Apr. 16, 2013 Rise Set
Actual Time 7:05 AM EDT 8:10 PM EDT
Civil Twilight 6:39 AM EDT 8:36 PM EDT
Nautical Twilight 6:09 AM EDT 9:06 PM EDT
Astronomical Twilight 5:37 AM EDT 9:38 PM EDT
Moon 11:30 AM EDT (4/16) 12:59 AM EDT (4/16)
Length of Visible Light 13h 56m
Length of Day
13h 04m
Waxing Crescent, 33% of the Moon is Illuminated
Apr 16
Waxing Crescent
Apr 18
First Quarter
Apr 25
Full
May 2
Last Quarter
May 9
New

Hourly Weather History & Observations

Time (EDT) Temp. Dew Point Humidity Pressure Visibility Wind Dir Wind Speed Gust Speed Precip Events Conditions
12:58 AM 61.5 °F 59.5 °F 93% 30.15 in 10.0 mi East 6.9 mph - N/A   Clear
1:58 AM 61.3 °F 59.4 °F 93% 30.15 in 10.0 mi East 5.8 mph - N/A   Clear
2:58 AM 61.2 °F 59.4 °F 94% 30.16 in 10.0 mi East 4.6 mph - N/A   Overcast
3:58 AM 61.7 °F 59.7 °F 93% 30.16 in 10.0 mi East 5.8 mph - N/A   Overcast
4:58 AM 59.5 °F 58.3 °F 96% 30.16 in 10.0 mi East 4.6 mph - N/A   Clear
5:43 AM 60.8 °F 59.0 °F 94% 30.18 in 10.0 mi East 4.6 mph - N/A   Mostly Cloudy
5:48 AM 60.8 °F 59.0 °F 94% 30.18 in 10.0 mi East 4.6 mph - N/A   Mostly Cloudy
5:58 AM 60.8 °F 59.9 °F 97% 30.17 in 10.0 mi East 5.8 mph - N/A   Overcast
6:03 AM 60.8 °F 60.8 °F 100% 30.18 in 10.0 mi East 8.1 mph - N/A   Overcast
6:08 AM 60.8 °F 60.8 °F 100% 30.18 in 10.0 mi East 6.9 mph - N/A   Overcast
6:58 AM 61.5 °F 61.3 °F 99% 30.20 in 10.0 mi East 8.1 mph - N/A   Overcast
7:23 AM 62.6 °F 60.8 °F 94% 30.21 in 9.0 mi East 11.5 mph - N/A   Overcast
7:33 AM 62.6 °F 60.8 °F 94% 30.22 in 5.0 mi ESE 8.1 mph - N/A   Overcast
7:58 AM 62.6 °F 62.6 °F 100% 30.22 in 7.0 mi ESE 6.9 mph - N/A   Overcast
8:31 AM 62.6 °F 62.6 °F 100% 30.24 in 10.0 mi SE 8.1 mph - N/A   Overcast
8:41 AM 62.6 °F 62.6 °F 100% 30.24 in 10.0 mi SE 5.8 mph - N/A   Overcast
8:58 AM 63.9 °F 62.2 °F 94% 30.24 in 10.0 mi ESE 8.1 mph - N/A   Overcast
9:24 AM 66.2 °F 62.6 °F 88% 30.25 in 10.0 mi ESE 9.2 mph - N/A   Overcast
9:58 AM 67.1 °F 61.9 °F 83% 30.24 in 10.0 mi ESE 8.1 mph - N/A   Mostly Cloudy
10:13 AM 68.0 °F 60.8 °F 78% 30.25 in 10.0 mi SE 6.9 mph - N/A   Overcast
10:41 AM 69.8 °F 62.6 °F 78% 30.25 in 10.0 mi ESE 10.4 mph - N/A   Mostly Cloudy
10:58 AM 70.7 °F 62.1 °F 74% 30.25 in 10.0 mi ESE 11.5 mph - N/A   Mostly Cloudy
11:58 AM 73.0 °F 61.7 °F 67% 30.25 in 10.0 mi ESE 9.2 mph - N/A   Mostly Cloudy
12:58 PM 75.7 °F 62.4 °F 63% 30.22 in 10.0 mi Variable 5.8 mph - N/A   Mostly Cloudy
1:58 PM 76.6 °F 61.9 °F 60% 30.20 in 10.0 mi Variable 4.6 mph - N/A   Mostly Cloudy
2:58 PM 79.0 °F 62.1 °F 56% 30.19 in 10.0 mi East 6.9 mph - N/A   Mostly Cloudy
3:58 PM 79.0 °F 61.9 °F 56% 30.17 in 10.0 mi Variable 3.5 mph - N/A   Mostly Cloudy
4:58 PM 79.2 °F 62.1 °F 56% 30.17 in 10.0 mi SE 8.1 mph - N/A   Mostly Cloudy
5:58 PM 79.0 °F 61.7 °F 55% 30.17 in 10.0 mi SE 6.9 mph - N/A   Mostly Cloudy
6:58 PM 78.4 °F 61.9 °F 57% 30.17 in 10.0 mi SE 8.1 mph - N/A   Mostly Cloudy
7:58 PM 76.8 °F 61.9 °F 60% 30.17 in 10.0 mi SE 8.1 mph - N/A   Mostly Cloudy
8:58 PM 74.3 °F 62.2 °F 66% 30.17 in 10.0 mi SE 3.5 mph - N/A   Scattered Clouds
9:58 PM 72.5 °F 62.4 °F 71% 30.19 in 10.0 mi Calm Calm - N/A   Scattered Clouds
10:58 PM 68.7 °F 62.6 °F 81% 30.19 in 10.0 mi Calm Calm - N/A   Partly Cloudy
11:58 PM 66.6 °F 62.8 °F 88% 30.19 in 10.0 mi Calm Calm - N/A   Clear